Powrót do katalogu

STARLINK-5473

AktywnyŁącznośćVLEO
NORAD 55663·PAYLOAD·🇺🇸 United States

Wystrzelony Feb 17, 2023 z Vandenberg Space Force Base

Loading…

Następne Przeloty (najbliższe 24 godziny)

TLE

ŚwieżeSource: CelesTrak SupGP

Epoka: Sep 15, 2026, 02:43 UTC

1 55663C 23021AM  26258.11368056 -.00034661  00000+0 -29074-2 0  2589
2 55663  70.0021  46.8350 0003291 264.1457 281.8624 14.98312474    12

Śledź STARLINK-5473 w czasie rzeczywistym z AllMySat

Download on the App Store